CSN2372 ZYTL-ZUCK

Flight info

Callsign CSN2372
Flight time 2h 35m
Altitude 38100
Route KARPI W5 HCH W4 LIMGI W152 TAREX W278 AVDIG W666 VINEX
Aircraft B77W/H-SDE1E2E3FGHIJ2J3J4J5M1RWXY/LB1D1

Departure

Time 2026-04-23 10:25
Airport Dalian Zhoushuizi International Airport (ZYTL)

Arrival

Time 2026-04-23 13:01
Airport Chongqing Jiangbei International Airport (ZUCK)
Time Latitude Longitude Altitude Speed Heading
2026-04-23 10:08 38.96266 121.53307 121 ft 0 kts 182°
2026-04-23 10:17 38.96271 121.53307 116 ft 3 kts 186°
2026-04-23 10:17 38.96284 121.53310 119 ft 3 kts 198°
2026-04-23 10:17 38.96307 121.53325 116 ft 3 kts 221°
2026-04-23 10:17 38.96320 121.53343 116 ft 3 kts 237°
2026-04-23 10:18 38.96326 121.53357 116 ft 3 kts 249°
2026-04-23 10:18 38.96331 121.53388 116 ft 3 kts 271°
2026-04-23 10:18 38.96332 121.53388 116 ft 0 kts 272°
2026-04-23 10:20 38.96346 121.53341 117 ft 10 kts 314°
2026-04-23 10:20 38.96405 121.53281 117 ft 12 kts 290°
2026-04-23 10:21 38.96411 121.53177 119 ft 12 kts 274°
2026-04-23 10:21 38.96419 121.53071 118 ft 12 kts 275°
2026-04-23 10:21 38.96427 121.52961 116 ft 14 kts 275°
2026-04-23 10:21 38.96437 121.52829 118 ft 15 kts 275°
2026-04-23 10:22 38.96448 121.52694 120 ft 15 kts 276°
2026-04-23 10:22 38.96459 121.52559 121 ft 15 kts 276°
2026-04-23 10:22 38.96470 121.52421 116 ft 16 kts 276°
2026-04-23 10:22 38.96482 121.52270 121 ft 18 kts 276°
2026-04-23 10:23 38.96494 121.52107 118 ft 19 kts 276°
2026-04-23 10:23 38.96510 121.51981 120 ft 13 kts 297°
2026-04-23 10:23 38.96584 121.51949 116 ft 7 kts
2026-04-23 10:23 38.96637 121.51953 118 ft 8 kts
2026-04-23 10:24 38.96689 121.51974 119 ft 8 kts 47°
2026-04-23 10:24 38.96696 121.52045 118 ft 1 kts 94°
2026-04-23 10:24 38.96690 121.52133 121 ft 30 kts 95°
2026-04-23 10:24 38.96640 121.52764 118 ft 112 kts 96°
2026-04-23 10:25 38.96545 121.54070 125 ft 177 kts 96°
2026-04-23 10:25 38.96437 121.55654 897 ft 173 kts 97°
2026-04-23 10:25 38.96333 121.57209 1755 ft 178 kts 95°
2026-04-23 10:25 38.96222 121.58791 2493 ft 177 kts 99°
2026-04-23 10:26 38.96099 121.60397 3263 ft 181 kts 95°
2026-04-23 10:26 38.96019 121.62000 4011 ft 180 kts 95°
2026-04-23 10:26 38.95923 121.63669 4490 ft 196 kts 94°
2026-04-23 10:26 38.95769 121.65501 4810 ft 218 kts 98°
2026-04-23 10:27 38.95546 121.67550 5045 ft 246 kts 97°
2026-04-23 10:27 38.95329 121.69743 5777 ft 246 kts 91°
2026-04-23 10:27 38.95683 121.71908 6366 ft 255 kts 58°
2026-04-23 10:27 38.96860 121.73566 7152 ft 252 kts 38°
2026-04-23 10:28 38.98386 121.74630 7917 ft 252 kts 11°
2026-04-23 10:28 39.00121 121.74894 8640 ft 253 kts
2026-04-23 10:28 39.01864 121.74692 9315 ft 256 kts 338°
2026-04-23 10:28 39.03313 121.73405 10131 ft 257 kts 311°
2026-04-23 10:29 39.04225 121.71385 10699 ft 272 kts 289°
2026-04-23 10:29 39.04583 121.68869 10928 ft 302 kts 277°
2026-04-23 10:29 39.04749 121.66047 11189 ft 331 kts 276°
2026-04-23 10:29 39.04927 121.63004 11426 ft 359 kts 276°
2026-04-23 10:30 39.05121 121.59761 12145 ft 366 kts 272°
2026-04-23 10:30 39.04683 121.56486 13007 ft 381 kts 250°
2026-04-23 10:30 39.03294 121.53565 14165 ft 388 kts 231°
2026-04-23 10:30 39.01216 121.51305 15154 ft 396 kts 212°
2026-04-23 10:31 38.98733 121.49696 15930 ft 405 kts 208°
2026-04-23 10:31 38.96160 121.48137 16777 ft 413 kts 208°
2026-04-23 10:31 38.93552 121.46536 17714 ft 418 kts 208°
2026-04-23 10:31 38.90929 121.44879 18616 ft 422 kts 209°
2026-04-23 10:32 38.88294 121.43192 19513 ft 424 kts 209°
2026-04-23 10:32 38.85646 121.41492 20421 ft 426 kts 209°
2026-04-23 10:32 38.82981 121.39785 21272 ft 429 kts 209°
2026-04-23 10:32 38.80297 121.38069 22095 ft 434 kts 209°
2026-04-23 10:33 38.77581 121.36334 22913 ft 437 kts 209°
2026-04-23 10:33 38.74852 121.34594 23694 ft 440 kts 209°
2026-04-23 10:33 38.72104 121.32842 24376 ft 442 kts 210°
2026-04-23 10:33 38.69345 121.31086 25081 ft 443 kts 210°
2026-04-23 10:34 38.66578 121.29325 25800 ft 444 kts 210°
2026-04-23 10:34 38.63807 121.27563 26478 ft 445 kts 210°
2026-04-23 10:34 38.61025 121.25794 27108 ft 448 kts 210°
2026-04-23 10:34 38.58228 121.24018 27710 ft 450 kts 210°
2026-04-23 10:35 38.55465 121.22160 28237 ft 447 kts 216°
2026-04-23 10:35 38.53086 121.19636 28683 ft 443 kts 231°
2026-04-23 10:35 38.51294 121.16529 29063 ft 441 kts 237°
2026-04-23 10:35 38.49506 121.13317 29433 ft 446 kts 236°
2026-04-23 10:36 38.47678 121.10132 30068 ft 443 kts 236°
2026-04-23 10:36 38.45846 121.06995 30743 ft 438 kts 236°
2026-04-23 10:36 38.44022 121.03895 31414 ft 434 kts 236°
2026-04-23 10:36 38.42217 121.00835 32030 ft 430 kts 236°
2026-04-23 10:37 38.40427 120.97800 32622 ft 426 kts 236°
2026-04-23 10:37 38.38649 120.94785 33208 ft 423 kts 236°
2026-04-23 10:37 38.36884 120.91793 33748 ft 421 kts 236°
2026-04-23 10:37 38.35128 120.88817 34222 ft 419 kts 236°
2026-04-23 10:38 38.33378 120.85853 34634 ft 418 kts 237°
2026-04-23 10:38 38.31633 120.82900 35016 ft 417 kts 237°
2026-04-23 10:38 38.29891 120.79954 35382 ft 416 kts 237°
2026-04-23 10:38 38.28147 120.77008 35724 ft 416 kts 237°
2026-04-23 10:39 38.26398 120.74082 36104 ft 414 kts 235°
2026-04-23 10:39 38.24337 120.71477 36366 ft 424 kts 224°
2026-04-23 10:39 38.21793 120.69511 36620 ft 433 kts 213°
2026-04-23 10:39 38.19050 120.67886 36806 ft 436 kts 212°
2026-04-23 10:40 38.16343 120.66268 37113 ft 434 kts 213°
2026-04-23 10:40 38.13622 120.64610 37470 ft 432 kts 213°
2026-04-23 10:40 38.10924 120.62939 37802 ft 431 kts 214°
2026-04-23 10:40 38.08224 120.61256 37995 ft 433 kts 214°
2026-04-23 10:41 38.02568 120.58322 38056 ft 447 kts 204°
2026-04-23 10:41 37.96443 120.56740 38053 ft 453 kts 194°
2026-04-23 10:42 37.90137 120.56264 38054 ft 454 kts 192°
2026-04-23 10:42 37.83843 120.55865 38059 ft 452 kts 193°
2026-04-23 10:43 37.77611 120.55405 38054 ft 450 kts 193°
2026-04-23 10:43 37.71624 120.54080 38064 ft 420 kts 215°
2026-04-23 10:44 37.69247 120.52080 38058 ft 405 kts 230°
2026-04-23 10:44 37.67409 120.49446 38075 ft 398 kts 239°
2026-04-23 10:44 37.64738 120.43326 38055 ft 400 kts 255°
2026-04-23 10:45 37.64065 120.36358 38066 ft 403 kts 265°
2026-04-23 10:45 37.63670 120.29255 38066 ft 407 kts 265°
2026-04-23 10:46 37.63223 120.22203 38051 ft 398 kts 264°
2026-04-23 10:46 37.62741 120.15322 38059 ft 395 kts 264°
2026-04-23 10:47 37.62243 120.08433 38060 ft 394 kts 264°
2026-04-23 10:47 37.61739 120.01548 38063 ft 394 kts 264°
2026-04-23 10:48 37.61232 119.94653 38065 ft 395 kts 264°
2026-04-23 10:48 37.60721 119.87760 38057 ft 395 kts 264°
2026-04-23 10:49 37.60205 119.80851 38062 ft 396 kts 264°
2026-04-23 10:49 37.59685 119.73940 38058 ft 396 kts 264°
2026-04-23 10:50 37.59162 119.67027 38057 ft 396 kts 264°
2026-04-23 10:50 37.58689 119.60111 38054 ft 396 kts 264°
2026-04-23 10:51 37.58240 119.53199 38049 ft 395 kts 264°
2026-04-23 10:51 37.57765 119.46295 38051 ft 395 kts 264°
2026-04-23 10:52 37.57276 119.39398 38051 ft 394 kts 264°
2026-04-23 10:52 37.56787 119.32529 38046 ft 393 kts 264°
2026-04-23 10:53 37.56299 119.25702 38044 ft 392 kts 264°
2026-04-23 10:53 37.55806 119.18854 38052 ft 392 kts 264°
2026-04-23 10:54 37.55311 119.12024 38043 ft 391 kts 264°
2026-04-23 10:54 37.54812 119.05208 38046 ft 391 kts 263°
2026-04-23 10:55 37.54310 118.98396 38042 ft 390 kts 263°
2026-04-23 10:55 37.53806 118.91624 38039 ft 390 kts 263°
2026-04-23 10:56 37.53298 118.84824 38043 ft 390 kts 263°
2026-04-23 10:56 37.52760 118.78030 38038 ft 389 kts 261°
2026-04-23 10:57 37.51947 118.71297 38040 ft 388 kts 260°
2026-04-23 10:57 37.51097 118.64584 38034 ft 388 kts 260°
2026-04-23 10:58 37.50250 118.57866 38032 ft 388 kts 260°
2026-04-23 10:58 37.49407 118.51152 38033 ft 388 kts 260°
2026-04-23 10:59 37.48563 118.44446 38030 ft 388 kts 260°
2026-04-23 10:59 37.47715 118.37741 38028 ft 388 kts 260°
2026-04-23 11:00 37.46864 118.31045 38026 ft 387 kts 260°
2026-04-23 11:00 37.46017 118.24407 38025 ft 387 kts 260°
2026-04-23 11:01 37.45167 118.17710 38024 ft 386 kts 260°
2026-04-23 11:01 37.44473 118.12150 38026 ft 386 kts 260°
2026-04-23 11:02 37.43496 118.04336 38030 ft 387 kts 260°
2026-04-23 11:02 37.42796 117.98771 38030 ft 388 kts 260°
2026-04-23 11:03 37.41948 117.92067 38030 ft 388 kts 260°
2026-04-23 11:03 37.41094 117.85350 38026 ft 389 kts 260°
2026-04-23 11:04 37.40234 117.78618 38032 ft 390 kts 260°
2026-04-23 11:04 37.39368 117.71871 38032 ft 391 kts 259°
2026-04-23 11:05 37.38495 117.65100 38034 ft 392 kts 260°
2026-04-23 11:05 37.37618 117.58322 38033 ft 393 kts 260°
2026-04-23 11:06 37.36290 117.48125 38033 ft 394 kts 260°
2026-04-23 11:07 37.34935 117.41495 38044 ft 395 kts 252°
2026-04-23 11:07 37.32901 117.35080 38036 ft 396 kts 246°
2026-04-23 11:08 37.30449 117.28875 38040 ft 397 kts 246°
2026-04-23 11:08 37.27979 117.22670 38040 ft 397 kts 246°
2026-04-23 11:09 37.25522 117.16456 38042 ft 398 kts 246°
2026-04-23 11:09 37.23067 117.10234 38046 ft 398 kts 246°
2026-04-23 11:10 37.20603 117.04011 38046 ft 398 kts 246°
2026-04-23 11:10 37.18146 116.97829 38042 ft 399 kts 246°
2026-04-23 11:11 37.15666 116.91606 38036 ft 399 kts 246°
2026-04-23 11:11 37.13185 116.85377 38040 ft 399 kts 246°
2026-04-23 11:12 37.10706 116.79146 38040 ft 400 kts 246°
2026-04-23 11:12 37.08253 116.72895 38047 ft 400 kts 246°
2026-04-23 11:13 37.05799 116.66638 38047 ft 401 kts 246°
2026-04-23 11:13 37.03336 116.60378 38039 ft 401 kts 246°
2026-04-23 11:14 37.00864 116.54115 38046 ft 401 kts 246°
2026-04-23 11:14 36.98388 116.47853 38043 ft 402 kts 246°
2026-04-23 11:15 36.95923 116.41633 38044 ft 402 kts 246°
2026-04-23 11:15 36.93436 116.35370 38041 ft 402 kts 246°
2026-04-23 11:16 36.90945 116.29108 38044 ft 403 kts 246°
2026-04-23 11:16 36.88448 116.22841 38041 ft 403 kts 246°
2026-04-23 11:17 36.85944 116.16571 38046 ft 403 kts 246°
2026-04-23 11:17 36.83433 116.10296 38044 ft 404 kts 246°
2026-04-23 11:18 36.80922 116.04027 38043 ft 404 kts 246°
2026-04-23 11:18 36.78407 115.97751 38044 ft 404 kts 246°
2026-04-23 11:19 36.75921 115.91447 38046 ft 405 kts 246°
2026-04-23 11:19 36.73434 115.85135 38050 ft 406 kts 246°
2026-04-23 11:20 36.70939 115.78822 38045 ft 406 kts 246°
2026-04-23 11:20 36.68432 115.72497 38051 ft 407 kts 245°
2026-04-23 11:21 36.65932 115.66206 38043 ft 408 kts 245°
2026-04-23 11:21 36.63405 115.59856 38051 ft 409 kts 245°
2026-04-23 11:22 36.60872 115.53506 38049 ft 410 kts 245°
2026-04-23 11:22 36.58332 115.47145 38050 ft 411 kts 245°
2026-04-23 11:23 36.55782 115.40776 38039 ft 412 kts 245°
2026-04-23 11:23 36.53236 115.34388 38047 ft 412 kts 245°
2026-04-23 11:24 36.50691 115.27991 38049 ft 413 kts 246°
2026-04-23 11:24 36.48169 115.21613 38052 ft 414 kts 246°
2026-04-23 11:25 36.45628 115.15191 38043 ft 414 kts 246°
2026-04-23 11:25 36.43078 115.08765 38048 ft 415 kts 246°
2026-04-23 11:26 36.40533 115.02337 38038 ft 415 kts 246°
2026-04-23 11:26 36.39259 114.99093 38156 ft 422 kts 246°
2026-04-23 11:26 36.37968 114.95809 38119 ft 429 kts 246°
2026-04-23 11:27 36.35166 114.89092 38045 ft 444 kts 243°
2026-04-23 11:27 36.31986 114.82423 38053 ft 453 kts 242°
2026-04-23 11:28 36.28791 114.75706 38045 ft 456 kts 242°
2026-04-23 11:28 36.25542 114.68937 38042 ft 457 kts 242°
2026-04-23 11:29 36.22244 114.62224 38041 ft 456 kts 241°
2026-04-23 11:29 36.18951 114.55536 38041 ft 453 kts 242°
2026-04-23 11:30 36.15680 114.48887 38040 ft 451 kts 242°
2026-04-23 11:30 36.12426 114.42272 38044 ft 449 kts 242°
2026-04-23 11:31 36.09203 114.35732 38046 ft 448 kts 242°
2026-04-23 11:31 36.05957 114.29159 38047 ft 447 kts 242°
2026-04-23 11:32 36.02713 114.22603 38054 ft 447 kts 242°
2026-04-23 11:32 35.99461 114.16042 38056 ft 448 kts 242°
2026-04-23 11:33 35.96198 114.09474 38065 ft 449 kts 241°
2026-04-23 11:33 35.92928 114.02905 38064 ft 450 kts 241°
2026-04-23 11:34 35.89648 113.96325 38078 ft 450 kts 241°
2026-04-23 11:34 35.86358 113.89741 38079 ft 451 kts 241°
2026-04-23 11:35 35.83066 113.83163 38090 ft 451 kts 241°
2026-04-23 11:35 35.79769 113.76590 38088 ft 451 kts 241°
2026-04-23 11:36 35.76487 113.70060 38096 ft 450 kts 241°
2026-04-23 11:36 35.73189 113.63508 38104 ft 450 kts 241°
2026-04-23 11:37 35.69886 113.56957 38107 ft 450 kts 241°
2026-04-23 11:37 35.66582 113.50420 38112 ft 449 kts 241°
2026-04-23 11:38 35.63280 113.43895 38113 ft 449 kts 241°
2026-04-23 11:38 35.59989 113.37380 38119 ft 448 kts 242°
2026-04-23 11:39 35.56782 113.30872 38140 ft 448 kts 242°
2026-04-23 11:39 35.53570 113.24326 38120 ft 447 kts 242°
2026-04-23 11:40 35.50343 113.17780 38110 ft 448 kts 242°
2026-04-23 11:40 35.47113 113.11251 38102 ft 448 kts 242°
2026-04-23 11:41 35.43871 113.04715 38098 ft 448 kts 242°
2026-04-23 11:41 35.40629 112.98194 38107 ft 448 kts 242°
2026-04-23 11:42 35.37407 112.91720 38107 ft 448 kts 242°
2026-04-23 11:42 35.34156 112.85200 38106 ft 448 kts 242°
2026-04-23 11:43 35.30900 112.78683 38087 ft 448 kts 242°
2026-04-23 11:43 35.27647 112.72185 38083 ft 448 kts 242°
2026-04-23 11:44 35.24392 112.65693 38094 ft 447 kts 242°
2026-04-23 11:44 35.21132 112.59202 38080 ft 447 kts 242°
2026-04-23 11:45 35.17893 112.52719 38083 ft 446 kts 242°
2026-04-23 11:45 35.14702 112.46273 38083 ft 446 kts 242°
2026-04-23 11:46 35.11489 112.39791 38077 ft 446 kts 242°
2026-04-23 11:46 35.08268 112.33317 38083 ft 445 kts 242°
2026-04-23 11:47 35.05046 112.26853 38086 ft 445 kts 242°
2026-04-23 11:47 35.01822 112.20398 38079 ft 445 kts 242°
2026-04-23 11:48 34.98595 112.13949 38070 ft 445 kts 242°
2026-04-23 11:48 34.95912 112.08595 38075 ft 445 kts 242°
2026-04-23 11:49 34.92682 112.02162 38073 ft 445 kts 242°
2026-04-23 11:49 34.89445 111.95724 38085 ft 445 kts 243°
2026-04-23 11:50 34.86213 111.89298 38065 ft 445 kts 243°
2026-04-23 11:50 34.83006 111.82856 38062 ft 444 kts 243°
2026-04-23 11:51 34.79810 111.76425 38077 ft 444 kts 243°
2026-04-23 11:51 34.76629 111.70041 38067 ft 444 kts 243°
2026-04-23 11:52 34.73425 111.63631 38072 ft 443 kts 243°
2026-04-23 11:52 34.70219 111.57231 38073 ft 443 kts 243°
2026-04-23 11:53 34.67010 111.50835 38068 ft 443 kts 243°
2026-04-23 11:53 34.63794 111.44437 38064 ft 443 kts 243°
2026-04-23 11:54 34.60580 111.38053 38061 ft 443 kts 242°
2026-04-23 11:54 34.57362 111.31672 38064 ft 444 kts 243°
2026-04-23 11:55 34.54136 111.25289 38068 ft 444 kts 243°
2026-04-23 11:55 34.50903 111.18903 38072 ft 444 kts 243°
2026-04-23 11:56 34.47670 111.12526 38067 ft 444 kts 243°
2026-04-23 11:56 34.44451 111.06189 38060 ft 444 kts 243°
2026-04-23 11:57 34.41223 110.99813 38068 ft 444 kts 243°
2026-04-23 11:57 34.38029 110.93417 38066 ft 444 kts 243°
2026-04-23 11:58 34.34835 110.87019 38073 ft 444 kts 243°
2026-04-23 11:58 34.31632 110.80625 38073 ft 444 kts 243°
2026-04-23 11:59 34.28422 110.74236 38071 ft 445 kts 243°
2026-04-23 11:59 34.25206 110.67846 38082 ft 445 kts 243°
2026-04-23 12:00 34.21983 110.61453 38075 ft 445 kts 243°
2026-04-23 12:00 34.18778 110.55108 38086 ft 445 kts 243°
2026-04-23 12:01 34.15551 110.48729 38079 ft 445 kts 243°
2026-04-23 12:01 34.12325 110.42349 38088 ft 445 kts 243°
2026-04-23 12:02 34.09121 110.35966 38096 ft 445 kts 243°
2026-04-23 12:02 34.05917 110.29588 38096 ft 444 kts 243°
2026-04-23 12:03 34.02711 110.23220 38088 ft 444 kts 243°
2026-04-23 12:03 33.99502 110.16861 38082 ft 443 kts 243°
2026-04-23 12:04 33.96296 110.10519 38092 ft 443 kts 243°
2026-04-23 12:04 33.93087 110.04181 38101 ft 444 kts 243°
2026-04-23 12:05 33.89897 109.97887 38094 ft 443 kts 244°
2026-04-23 12:05 33.87304 109.91233 38088 ft 438 kts 253°
2026-04-23 12:06 33.85576 109.84245 38088 ft 435 kts 258°
2026-04-23 12:06 33.83302 109.73650 38079 ft 436 kts 258°
2026-04-23 12:07 33.81750 109.66587 38076 ft 437 kts 258°
2026-04-23 12:07 33.80122 109.59544 38079 ft 438 kts 252°
2026-04-23 12:08 33.78672 109.56298 38091 ft 445 kts 239°
2026-04-23 12:08 33.76702 109.53407 38084 ft 451 kts 231°
2026-04-23 12:08 33.74291 109.50948 38079 ft 459 kts 218°
2026-04-23 12:08 33.71553 109.48956 38090 ft 461 kts 216°
2026-04-23 12:09 33.65955 109.45131 38080 ft 465 kts 215°
2026-04-23 12:09 33.60325 109.41274 38075 ft 466 kts 216°
2026-04-23 12:10 33.54757 109.37387 38079 ft 466 kts 216°
2026-04-23 12:10 33.49163 109.33453 38081 ft 465 kts 216°
2026-04-23 12:11 33.43603 109.29539 38090 ft 463 kts 216°
2026-04-23 12:11 33.38037 109.25629 38079 ft 462 kts 216°
2026-04-23 12:12 33.32491 109.21742 38079 ft 461 kts 216°
2026-04-23 12:12 33.26979 109.17887 38085 ft 462 kts 216°
2026-04-23 12:13 33.21417 109.14001 38060 ft 461 kts 216°
2026-04-23 12:13 33.15888 109.10144 38054 ft 460 kts 216°
2026-04-23 12:14 33.10365 109.06297 38083 ft 459 kts 216°
2026-04-23 12:14 33.04833 109.02447 38066 ft 461 kts 216°
2026-04-23 12:15 32.99281 108.98592 38070 ft 462 kts 216°
2026-04-23 12:15 32.93717 108.94732 38060 ft 463 kts 216°
2026-04-23 12:16 32.88183 108.90900 38053 ft 463 kts 216°
2026-04-23 12:16 32.82611 108.87048 38056 ft 463 kts 216°
2026-04-23 12:17 32.77040 108.83201 38046 ft 463 kts 216°
2026-04-23 12:17 32.71476 108.79365 38051 ft 462 kts 216°
2026-04-23 12:18 32.65911 108.75533 38055 ft 463 kts 216°
2026-04-23 12:18 32.60334 108.71698 38056 ft 463 kts 216°
2026-04-23 12:19 32.54746 108.67863 38060 ft 464 kts 216°
2026-04-23 12:19 32.49148 108.64022 38062 ft 464 kts 216°
2026-04-23 12:20 32.43923 108.59789 38064 ft 449 kts 233°
2026-04-23 12:20 32.40671 108.53661 38046 ft 436 kts 255°
2026-04-23 12:21 32.39161 108.46764 38063 ft 437 kts 259°
2026-04-23 12:21 32.37684 108.39751 38074 ft 440 kts 259°
2026-04-23 12:22 32.36137 108.32732 38058 ft 441 kts 258°
2026-04-23 12:22 32.34574 108.25725 38059 ft 440 kts 258°
2026-04-23 12:23 32.32880 108.18765 38046 ft 440 kts 257°
2026-04-23 12:23 32.31074 108.11876 38057 ft 438 kts 256°
2026-04-23 12:24 32.29285 108.05006 38062 ft 437 kts 257°
2026-04-23 12:24 32.27514 107.98146 38053 ft 436 kts 257°
2026-04-23 12:25 32.25759 107.91337 38055 ft 436 kts 257°
2026-04-23 12:25 32.23987 107.84487 38055 ft 435 kts 257°
2026-04-23 12:26 32.22217 107.77651 38051 ft 436 kts 257°
2026-04-23 12:26 32.20402 107.70815 38035 ft 437 kts 252°
2026-04-23 12:27 32.17218 107.64629 38061 ft 448 kts 236°
2026-04-23 12:27 32.12580 107.59605 38064 ft 458 kts 223°
2026-04-23 12:28 32.07418 107.55165 38053 ft 459 kts 222°
2026-04-23 12:28 32.02260 107.50708 38045 ft 460 kts 223°
2026-04-23 12:29 31.97136 107.46198 38040 ft 459 kts 223°
2026-04-23 12:29 31.92056 107.41708 38042 ft 460 kts 223°
2026-04-23 12:30 31.86938 107.37193 38032 ft 459 kts 223°
2026-04-23 12:30 31.81831 107.32701 38037 ft 458 kts 223°
2026-04-23 12:31 31.76390 107.28678 38029 ft 467 kts 213°
2026-04-23 12:31 31.70418 107.25561 38022 ft 471 kts 210°
2026-04-23 12:32 31.64401 107.22517 38032 ft 471 kts 210°
2026-04-23 12:32 31.58393 107.19448 38030 ft 471 kts 210°
2026-04-23 12:33 31.52400 107.16365 38035 ft 470 kts 210°
2026-04-23 12:33 31.46418 107.13286 38019 ft 469 kts 210°
2026-04-23 12:34 31.40485 107.10236 38030 ft 468 kts 210°
2026-04-23 12:34 31.34527 107.07178 38019 ft 467 kts 210°
2026-04-23 12:35 31.28565 107.04122 38027 ft 468 kts 210°
2026-04-23 12:35 31.22596 107.01067 38009 ft 468 kts 210°
2026-04-23 12:36 31.16624 106.98018 38022 ft 469 kts 210°
2026-04-23 12:36 31.11648 106.95478 38025 ft 470 kts 210°
2026-04-23 12:37 31.05650 106.92419 38011 ft 470 kts 210°
2026-04-23 12:37 30.99668 106.89374 37922 ft 468 kts 210°
2026-04-23 12:38 30.95655 106.87333 37081 ft 470 kts 210°
2026-04-23 12:38 30.93671 106.86327 36645 ft 468 kts 210°
2026-04-23 12:38 30.89724 106.84326 35698 ft 467 kts 210°
2026-04-23 12:38 30.87707 106.83303 35154 ft 467 kts 210°
2026-04-23 12:39 30.84722 106.81788 34340 ft 469 kts 210°
2026-04-23 12:39 30.81725 106.80268 33411 ft 471 kts 210°
2026-04-23 12:39 30.78730 106.78752 32724 ft 467 kts 210°
2026-04-23 12:39 30.75762 106.77253 32103 ft 463 kts 210°
2026-04-23 12:40 30.72826 106.75770 31507 ft 459 kts 210°
2026-04-23 12:40 30.69909 106.74295 30938 ft 455 kts 211°
2026-04-23 12:40 30.67020 106.72834 30376 ft 451 kts 211°
2026-04-23 12:40 30.64154 106.71388 29775 ft 448 kts 211°
2026-04-23 12:41 30.61286 106.70108 29128 ft 450 kts 201°
2026-04-23 12:41 30.58147 106.69692 28568 ft 460 kts 182°
2026-04-23 12:41 30.54978 106.70051 28037 ft 456 kts 180°
2026-04-23 12:41 30.51826 106.70438 27460 ft 454 kts 180°
2026-04-23 12:42 30.48688 106.70791 26904 ft 451 kts 180°
2026-04-23 12:42 30.45566 106.71108 26351 ft 449 kts 180°
2026-04-23 12:42 30.42462 106.71402 25808 ft 447 kts 180°
2026-04-23 12:42 30.39370 106.71689 25262 ft 445 kts 180°
2026-04-23 12:43 30.36283 106.71977 24727 ft 443 kts 180°
2026-04-23 12:43 30.33223 106.72203 24169 ft 438 kts 185°
2026-04-23 12:43 30.30273 106.71689 23605 ft 420 kts 202°
2026-04-23 12:43 30.27506 106.70649 23037 ft 418 kts 203°
2026-04-23 12:44 30.24746 106.69606 22453 ft 416 kts 202°
2026-04-23 12:44 30.21990 106.68595 21901 ft 414 kts 202°
2026-04-23 12:44 30.19244 106.67612 21372 ft 412 kts 201°
2026-04-23 12:44 30.16539 106.66662 20848 ft 410 kts 201°
2026-04-23 12:45 30.13777 106.65700 20314 ft 408 kts 200°
2026-04-23 12:45 30.11097 106.64768 19805 ft 407 kts 200°
2026-04-23 12:45 30.08386 106.63827 19272 ft 406 kts 200°
2026-04-23 12:45 30.05689 106.62891 18758 ft 404 kts 200°
2026-04-23 12:46 30.02967 106.61946 18211 ft 403 kts 199°
2026-04-23 12:46 30.00320 106.61028 17617 ft 401 kts 199°
2026-04-23 12:46 29.97657 106.60106 17081 ft 398 kts 199°
2026-04-23 12:46 29.95011 106.59189 16567 ft 395 kts 199°
2026-04-23 12:47 29.92388 106.58281 16045 ft 393 kts 199°
2026-04-23 12:47 29.89777 106.57378 15530 ft 390 kts 199°
2026-04-23 12:47 29.87179 106.56479 15022 ft 388 kts 199°
2026-04-23 12:47 29.84601 106.55586 14507 ft 386 kts 199°
2026-04-23 12:48 29.82037 106.54699 14004 ft 384 kts 199°
2026-04-23 12:48 29.79478 106.53813 13454 ft 383 kts 199°
2026-04-23 12:48 29.76932 106.52935 12912 ft 381 kts 198°
2026-04-23 12:48 29.74398 106.52063 12387 ft 379 kts 198°
2026-04-23 12:49 29.71883 106.51198 11882 ft 376 kts 198°
2026-04-23 12:49 29.69383 106.50334 11380 ft 374 kts 198°
2026-04-23 12:49 29.66899 106.49478 10888 ft 372 kts 197°
2026-04-23 12:49 29.64438 106.48631 10632 ft 364 kts 197°
2026-04-23 12:50 29.62045 106.47808 10478 ft 353 kts 197°
2026-04-23 12:50 29.59754 106.47021 10341 ft 343 kts 197°
2026-04-23 12:50 29.57470 106.46234 10199 ft 334 kts 197°
2026-04-23 12:50 29.55297 106.45489 10063 ft 326 kts 197°
2026-04-23 12:51 29.53150 106.44753 9852 ft 320 kts 197°
2026-04-23 12:51 29.51054 106.44035 9708 ft 305 kts 197°
2026-04-23 12:51 29.49085 106.43358 9411 ft 285 kts 197°
2026-04-23 12:51 29.47258 106.42730 9268 ft 263 kts 197°
2026-04-23 12:52 29.45575 106.42152 9162 ft 242 kts 197°
2026-04-23 12:52 29.43972 106.41899 8983 ft 231 kts 171°
2026-04-23 12:52 29.42530 106.42594 8805 ft 224 kts 143°
2026-04-23 12:52 29.41475 106.43899 8567 ft 224 kts 122°
2026-04-23 12:53 29.40877 106.45550 8301 ft 225 kts 109°
2026-04-23 12:53 29.40442 106.47271 8079 ft 225 kts 107°
2026-04-23 12:53 29.40007 106.49003 7848 ft 226 kts 108°
2026-04-23 12:53 29.39731 106.50763 7540 ft 224 kts 88°
2026-04-23 12:54 29.40232 106.52404 7228 ft 218 kts 56°
2026-04-23 12:54 29.41334 106.53545 6929 ft 213 kts 28°
2026-04-23 12:54 29.42722 106.54071 6680 ft 205 kts 18°
2026-04-23 12:54 29.44104 106.54534 6503 ft 215 kts 19°
2026-04-23 12:55 29.45559 106.55031 6233 ft 220 kts 19°
2026-04-23 12:55 29.47016 106.55534 5985 ft 216 kts 19°
2026-04-23 12:55 29.48434 106.56024 5734 ft 208 kts 19°
2026-04-23 12:55 29.49787 106.56487 5496 ft 201 kts 19°
2026-04-23 12:56 29.51153 106.56960 5256 ft 206 kts 19°
2026-04-23 12:56 29.52530 106.57434 4987 ft 206 kts 19°
2026-04-23 12:56 29.53894 106.57906 4728 ft 204 kts 19°
2026-04-23 12:56 29.55243 106.58372 4426 ft 200 kts 19°
2026-04-23 12:57 29.56559 106.58831 4187 ft 197 kts 19°
2026-04-23 12:57 29.57873 106.59284 3957 ft 198 kts 18°
2026-04-23 12:57 29.59187 106.59739 3670 ft 194 kts 19°
2026-04-23 12:57 29.60448 106.60180 3408 ft 184 kts 19°
2026-04-23 12:58 29.61634 106.60588 3200 ft 173 kts 18°
2026-04-23 12:58 29.62731 106.60965 2991 ft 155 kts 19°
2026-04-23 12:58 29.63728 106.61312 2781 ft 146 kts 18°
2026-04-23 12:58 29.64679 106.61637 2703 ft 144 kts 19°
2026-04-23 12:59 29.65676 106.62008 2452 ft 156 kts 20°
2026-04-23 12:59 29.66691 106.62343 2248 ft 149 kts 18°
2026-04-23 12:59 29.67655 106.62680 2012 ft 142 kts 19°
2026-04-23 12:59 29.68614 106.63013 1817 ft 143 kts 17°
2026-04-23 13:00 29.69573 106.63343 1597 ft 143 kts 18°
2026-04-23 13:00 29.70531 106.63672 1429 ft 145 kts 17°
2026-04-23 13:00 29.71461 106.63995 1375 ft 124 kts 17°
2026-04-23 13:00 29.72108 106.64219 1375 ft 71 kts 17°
2026-04-23 13:01 29.72397 106.64318 1377 ft 13 kts 17°
2026-04-23 13:01 29.72463 106.64265 1377 ft 13 kts 293°
2026-04-23 13:01 29.72490 106.64165 1377 ft 13 kts 287°
2026-04-23 13:01 29.72503 106.64070 1377 ft 12 kts 243°
2026-04-23 13:02 29.72430 106.64028 1376 ft 12 kts 198°
2026-04-23 13:02 29.72347 106.63997 1375 ft 13 kts 198°
2026-04-23 13:02 29.72329 106.63991 1376 ft 13 kts 196°
2026-04-23 13:03 29.72318 106.63987 1376 ft 13 kts 196°
2026-04-23 13:03 29.72266 106.63968 1377 ft 5 kts 195°
2026-04-23 13:03 29.72226 106.63956 1375 ft 8 kts 194°
2026-04-23 13:03 29.72153 106.63933 1376 ft 12 kts 197°
2026-04-23 13:04 29.72113 106.63906 1375 ft 7 kts 236°
2026-04-23 13:04 29.72103 106.63871 1375 ft 2 kts 272°
2026-04-23 13:04 29.72107 106.63858 1374 ft 0 kts 289°